User: anonymous   Login
Location: Unspecified
(0.0000°N, 0.0000°E)
Time: 22:01:59
(UTC+00:00)
Language:

deb DMSP - Orbit

View from above orbital plane
View from above orbital plane
View from above satellite
View from above satellite

Ground track
Ground track

The orbit data is extracted from the following two-line orbital elements,

1 24756U 97012B   20297.43502411  .02082135  26686-2  57526-2 0  9991
2 24756  98.7872 281.1367 0014172 152.6746 207.5274 15.94338133252917
Epoch (UTC): 23 October 2020 10:26:26
Eccentricity: 0.0014172
inclination: 98.7872°
perigee height: 281 km
apogee height: 299 km
right ascension of ascending node: 281.1367°
argument of perigee: 152.6746°
revolutions per day: 15.94338133
mean anomaly at epoch: 207.5274°
orbit number at epoch: 25291

The dashed part of the orbit path shows where the satellite is in the earth's shadow,  

DLR